Showing default

OPS 6679 (VELA 8), 2766

Orbit data source: Space-Track

OPS 6679 (VELA 8), 2766 is a payload satellite owned by USAF SSD (US) in HEO that was launched on Fri, 28 Apr 1967 UTC via a TITAN IIIC launch vehicle from the Air Force Eastern Test Range (AFETR). Payloads include a variety of satellites, spacecraft, and rockets equipped with specific instruments for various scientific and technological missions. These include communications satellites like Starlink; space stations such as the ISS; scientific satellites like the Hubble; Earth observation satellites from companies like Planet Labs, Umbra, and HawkEye 360; GPS; miniature CubeSats for education and research; and military/defense satellites.

Loading next visibility...
OPS 6679 (VELA 8) details
Identifier
2766, 1967-040B
Orbit
HEO
Last TLE update3 days ago
Origin
Flag of USUSAF SSD (US)
ManufacturerTRW
MissionDefense Early Warn
Bus & MotorVELA, BE-3
Mass~348 kg wet, 221 kg dry
Launch date (UTC)
1967-04-28 (58 years ago)
Launch vehicle
TITAN IIIC
Launch site
Air Force Eastern Test Range (AFETR)
Object type
Payload
Rocket body
Debris
Shape & HBRPoly, 1.42 m
Radar Cross Section2.036 m²

Expand to show TLE details & history

TLE from 3 days ago
0 OPS 6679 (VELA 8)
1 02766U 67040B   25043.07349850 -.00001239  00000-0  00000-0 0  9994
2 02766  33.6839  15.3153 4620429 100.2497   0.2233  0.21255335  4452
Epoch: 2025-02-12T01:45Z
Definitive object data (Epoch: 2025-02-12T01:45:50.27Z)
Latitude33.31226°
Longitude-54.28786°
Altitude56,697.668 km
Speed3.046 km/s
True Right ascension07h 38m 09s
True Declination33° 17' 40"
Sunlit
Object was in daylight at TLE epoch
Visualization TLE readout
Latitude-31.78646°
Longitude137.82428°
Altitude166,540.539 km
Speed1.118 km/s
Apparent Right ascension20h 30m 47s
Apparent Declination-33° 39' 38"
Sunlit
Object is in daylight
Visualization observer readout
Local Sidereal Time18:18:02
Azimuth152.415° SSE
Elevation10.288°
Doppler factor1
Orbital elements
Apogee altitude167,022.746 km
Perigee altitude57,424.53 km
Semi-major axis118,601.775 km
Eccentricity0.4620429
Inclination33.6839°
RAAN15.3153°
Arg. of periapsis100.2497°
True anomaly0.68429°
Mean anomaly0.2233°
Eccentric anomaly0.41509°
Mean motion0.05314 °/min
BSTARUnknown
Orbital period6774.79 mins
Loading maneuver chart data...
Loading historical data...
Loading historical data...
Loading historical data...
Loading historical data...
Loading historical data...
Loading historical data...
Loading historical data...

OPS 6679 (VELA 8) Visibility forecast

Observer location: undefined°, undefined

Span
Click to sort rows by Start time (UTC) header in descending order
Start Az.
Max El. time (UTC)
Max El. Az.
Max El.
End time (UTC)
End Az.
303 mins2025-02-14 15:38:52.166Z152.417° SSE2025-02-14 18:10:52.166Z181.897° SSW16.29°2025-02-14 20:41:52.166Z211.431° SW
|